Regional Weather Roundup
Issued by NWS Burlington, VT

Home | Current Version | Previous Version | Text Only | Print | Product List | Glossary On
Versions: 1 2 3 4 5 6 7 8 9 10 11 12 13 14 15 16 17 18 19 20 21 22 23 24 25 26 27 28 29 30 31 32 33 34 35 36 37 38 39 40 41 42 43 44 45 46 47 48 49 50
000
ASUS41 KBTV 292110
RWRBTV
VERMONT REGIONAL WEATHER ROUNDUP
NATIONAL WEATHER SERVICE BURLINGTON VT
500 PM EDT FRI MAY 29 2015

NOTE: "FAIR" INDICATES FEW OR NO CLOUDS BELOW 12,000 FEET WITH NO
SIGNIFICANT WEATHER AND/OR OBSTRUCTIONS TO VISIBILITY.

* THESE REPORTS ARE NOT UNDER NWS QUALITY CONTROL AND/OR DO NOT
  REPORT WEATHER SUCH AS PRECIPITATION AND FOG.

VTZ001>019-292200-
_____VERMONT_____


CITY           SKY/WX    TMP DP  RH WIND       PRES   REMARKS
BURLINGTON     MOCLDY    80  48  32 S7        30.19F
MONTPELIER     PTCLDY    78  54  43 S10       30.26F
MORRISVILLE    PTCLDY    81  53  37 VRB5      30.22F
ST. JOHNSBURY*   N/A     81  50  33 MISG      30.19F
LYNDONVILLE*     N/A     78  49  36 SE5       30.24F
MIDDLEBURY*      N/A     79  50  36 CALM      30.21F
RUTLAND*       PTCLDY    79  55  44 W6        30.22F
SPRINGFIELD    PTCLDY    82  54  37 VRB7      30.22F
HIGHGATE*        N/A     78  55  44 CALM      30.20F
NEWPORT*         N/A     76  55  48 S5        30.22F
BENNINGTON     MOCLDY    80  58  46 CALM      30.22F
SUTTON*          N/A     79 N/A N/A MISG        N/A

_____LAKE CHAMPLAIN_____


CITY           SKY/WX    TMP DP  RH WIND       PRES   REMARKS

$$

NYZ007-026>031-035-052-083-292200-
_____NORTHERN NEW YORK_____


CITY           SKY/WX    TMP DP  RH WIND       PRES   REMARKS
PLATTSBURGH    MOCLDY    77  53  43 SE8       30.19F
SARANAC LAKE   CLOUDY    77  48  35 SW6       30.21F
MASSENA        CLOUDY    80  56  43 N5        30.17F
OGDENSBURG*    CLEAR     81  57  44 W6        30.16F
POTSDAM*       CLEAR     81  59  47 W5        30.17F
WATERTOWN      MOCLDY    80  48  32 VRB6      30.16F
FT DRUM        MOCLDY    79  56  44 CALM      30.17F
ALBANY         CLOUDY    83  54  36 VRB6      30.20F
GLENS FALLS    MOCLDY    79  54  41 S7        30.21F

$$
NHZ002-005-011-292200-
_____NEW HAMPSHIRE_____


CITY           SKY/WX    TMP DP  RH WIND       PRES   REMARKS
LEBANON        PTCLDY    82  51  34 S7        30.21F
KEENE          PTCLDY    81  57  44 S6        30.24S
MT WASHINGTON  MOCLDY    55  48  76 SW7         N/A
PLYMOUTH         N/A     81  60  49 SE5       30.22F
WHITEFIELD     CLEAR     80  55  42 VRB6      30.21F

$$

_____REGIONAL QUEBEC LOCATIONS_____


CITY           SKY/WX    TMP DP  RH WIND       PRES   REMARKS
MONTREAL       CLOUDY    77  57  50 S5        30.18F
QUEBEC CITY    MOCLDY    73  54  49 SW12      30.18F
SHERBROOKE     CLEAR     75  50  41 SW7       30.21F

_____REGIONAL ONTARIO LOCATIONS_____


CITY           SKY/WX    TMP DP  RH WIND       PRES   REMARKS
OTTAWA         CLOUDY    77  54  44 S13       30.16F

______KEY______
VSB  - VISIBILITY IN MILES
WCI  - WIND CHILL INDEX
HX   - HEAT INDEX
$$
NNNN


USA.gov is the U.S. government's official web portal to all federal, state and local government web resources and services.